Weather History for KLVN - December, 2010

Change the Weather History Date:

Saturday, December 18, 2010

  Actual Average (KMSP) Record (KMSP)
Temperature  
Mean Temperature 8 °F 19 °F  
Max Temperature 14 °F 26 °F 55 °F (1923)
Min Temperature 3 °F 11 °F -24 °F (1983)
Degree Days  
Heating Degree Days 56 46  
Month to date heating degree days 782  
Since 1 July heating degree days 2401  
Cooling Degree Days 0 0  
Month to date cooling degree days 0  
Year to date cooling degree days 753  
Moisture  
Dew Point 6 °F    
Average Humidity 86    
Maximum Humidity 92    
Minimum Humidity 79    
Precipitation  
Precipitation 0.00 in 0.04 in 0.28 in (1939)
Month to date precipitation 0.71  
Year to date precipitation 30.16  
Snow  
Snow 0.00 in 0.30 in 5.30 in (2000)
Month to date snowfall 7.2  
Since 1 July snowfall 17.1  
Snow Depth -    
Sea Level Pressure  
Sea Level Pressure 29.96 in    
Wind  
Wind Speed 9 mph (West)    
Max Wind Speed 13 mph    
Max Gust Speed 17 mph    
Visibility 10 miles    
Events Snow    
T = Trace of Precipitation, MM = Missing Value Source: NWS Daily Summary

Daily Weather History Graph

Daily Weather History Graph

Search for Another Location

Airport or City:

Trip Planner

Search our weather history database for the weather conditions in past years. The results will help you decide how hot, cold, wet, or windy it might be!

Date:

Astronomy

Dec. 18, 2010 Rise Set
Actual Time 7:45 AM CST 4:34 PM CST
Civil Twilight 7:11 AM CST 5:07 PM CST
Nautical Twilight 6:34 AM CST 5:44 PM CST
Astronomical Twilight 5:58 AM CST 6:20 PM CST
Moon 2:20 PM CST (12/18) 5:06 AM CST (12/18)
Length of Visible Light 9h 56m
Length of Day
8h 49m
Waxing Gibbous, 92% of the Moon is Illuminated
Dec 18
Waxing Gibbous
Dec 21
Full
Dec 27
Last Quarter
Jan 4
New
Jan 12
First Quarter

Hourly Weather History & Observations

Time (CST) Temp. Windchill Dew Point Humidity Pressure Visibility Wind Dir Wind Speed Gust Speed Precip Events Conditions
12:13 AM 5.0 °F -9.1 °F 1.4 °F 85% 30.02 in 10.0 mi West 9.2 mph 16.1 mph N/A   Clear
12:33 AM 3.2 °F -10.3 °F 1.4 °F 92% 30.02 in 10.0 mi West 8.1 mph - N/A   Clear
12:53 AM 5.0 °F -6.9 °F 1.4 °F 85% 30.01 in 10.0 mi West 6.9 mph - N/A   Mostly Cloudy
1:13 AM 5.0 °F -8.1 °F 1.4 °F 85% 30.01 in 10.0 mi West 8.1 mph - N/A   Mostly Cloudy
1:33 AM 5.0 °F -10.8 °F 1.4 °F 85% 30.01 in 10.0 mi West 11.5 mph - N/A   Scattered Clouds
2:33 AM 5.0 °F -8.1 °F 1.4 °F 85% 30.01 in 10.0 mi West 8.1 mph - N/A Snow Light Snow
2:53 AM 3.2 °F -10.3 °F 1.4 °F 92% 30.01 in 10.0 mi West 8.1 mph - N/A   Overcast
3:13 AM 3.2 °F -12.2 °F 1.4 °F 92% 30.00 in 10.0 mi West 10.4 mph - N/A   Overcast
3:53 AM 3.2 °F -10.3 °F 1.4 °F 92% 29.99 in 10.0 mi WSW 8.1 mph - N/A   Overcast
4:34 AM 5.0 °F -5.6 °F 1.4 °F 85% 29.98 in 10.0 mi WSW 5.8 mph - N/A   Overcast
4:53 AM 5.0 °F -6.9 °F 1.4 °F 85% 29.98 in 10.0 mi WSW 6.9 mph - N/A   Overcast
5:13 AM 5.0 °F -8.1 °F 1.4 °F 85% 29.98 in 10.0 mi West 8.1 mph - N/A   Overcast
5:33 AM 5.0 °F -8.1 °F 1.4 °F 85% 29.98 in 10.0 mi West 8.1 mph - N/A   Overcast
5:53 AM 5.0 °F -8.1 °F 1.4 °F 85% 29.98 in 10.0 mi West 8.1 mph - N/A   Overcast
6:13 AM 5.0 °F -9.1 °F 1.4 °F 85% 29.98 in 10.0 mi West 9.2 mph - N/A   Overcast
6:53 AM 6.8 °F -5.9 °F 3.2 °F 85% 29.98 in 10.0 mi West 8.1 mph - N/A   Overcast
7:13 AM 6.8 °F -5.9 °F 3.2 °F 85% 29.98 in 10.0 mi West 8.1 mph - N/A   Overcast
7:53 AM 6.8 °F -6.9 °F 3.2 °F 85% 29.97 in 10.0 mi West 9.2 mph - N/A   Overcast
8:13 AM 8.6 °F -5.5 °F 3.2 °F 79% 29.97 in 10.0 mi West 10.4 mph - N/A   Overcast
8:33 AM 8.6 °F -5.5 °F 5.0 °F 85% 29.97 in 10.0 mi West 10.4 mph - N/A   Overcast
9:13 AM 8.6 °F -4.7 °F 6.8 °F 92% 29.98 in 10.0 mi West 9.2 mph - N/A   Overcast
9:33 AM 10.4 °F -2.4 °F 6.8 °F 85% 29.98 in 10.0 mi West 9.2 mph - N/A   Mostly Cloudy
9:54 AM 10.4 °F -2.4 °F 6.8 °F 85% 29.98 in 10.0 mi West 9.2 mph - N/A   Overcast
10:13 AM 10.4 °F -3.3 °F 6.8 °F 85% 29.98 in 10.0 mi West 10.4 mph - N/A   Mostly Cloudy
10:33 AM 10.4 °F -2.4 °F 6.8 °F 85% 29.97 in 10.0 mi West 9.2 mph - N/A   Mostly Cloudy
10:54 AM 10.4 °F -3.3 °F 6.8 °F 85% 29.96 in 10.0 mi West 10.4 mph - N/A   Overcast
11:13 AM 12.2 °F -1.8 °F 6.8 °F 79% 29.96 in 10.0 mi West 11.5 mph 16.1 mph N/A   Overcast
11:33 AM 12.2 °F -0.2 °F 6.8 °F 79% 29.95 in 10.0 mi West 9.2 mph - N/A   Overcast
11:53 AM 12.2 °F -2.5 °F 6.8 °F 79% 29.95 in 10.0 mi West 12.7 mph - N/A   Mostly Cloudy
12:13 PM 12.2 °F -1.8 °F 8.6 °F 85% 29.94 in 10.0 mi West 11.5 mph 17.3 mph N/A   Overcast
12:33 PM 12.2 °F -2.5 °F 8.6 °F 85% 29.94 in 10.0 mi West 12.7 mph - N/A   Overcast
12:53 PM 12.2 °F -1.0 °F 8.6 °F 85% 29.93 in 10.0 mi West 10.4 mph - N/A   Overcast
1:13 PM 12.2 °F -2.5 °F 8.6 °F 85% 29.93 in 10.0 mi West 12.7 mph - N/A   Overcast
1:33 PM 12.2 °F -1.8 °F 8.6 °F 85% 29.93 in 10.0 mi West 11.5 mph 16.1 mph N/A   Overcast
1:53 PM 12.2 °F -1.0 °F 8.6 °F 85% 29.92 in 10.0 mi West 10.4 mph - N/A   Overcast
2:13 PM 14.0 °F 0.5 °F 8.6 °F 79% 29.92 in 10.0 mi West 11.5 mph - N/A   Overcast
2:33 PM 14.0 °F 2.9 °F 8.6 °F 79% 29.92 in 10.0 mi West 8.1 mph - N/A   Overcast
2:53 PM 12.2 °F 0.7 °F 8.6 °F 85% 29.92 in 10.0 mi West 8.1 mph - N/A   Overcast
3:34 PM 12.2 °F -1.0 °F 8.6 °F 85% 29.93 in 10.0 mi West 10.4 mph - N/A   Overcast
3:53 PM 12.2 °F -1.8 °F 8.6 °F 85% 29.93 in 10.0 mi West 11.5 mph - N/A   Overcast
4:13 PM 12.2 °F -1.8 °F 8.6 °F 85% 29.94 in 10.0 mi West 11.5 mph - N/A   Overcast
4:33 PM 12.2 °F -0.2 °F 8.6 °F 85% 29.93 in 10.0 mi West 9.2 mph - N/A   Overcast
4:53 PM 12.2 °F 0.7 °F 8.6 °F 85% 29.93 in 10.0 mi West 8.1 mph - N/A   Overcast
5:13 PM 12.2 °F -0.2 °F 8.6 °F 85% 29.94 in 10.0 mi WSW 9.2 mph 17.3 mph N/A   Overcast
5:33 PM 10.4 °F -1.5 °F 8.6 °F 92% 29.94 in 10.0 mi West 8.1 mph - N/A   Overcast
5:53 PM 10.4 °F -1.5 °F 8.6 °F 92% 29.93 in 10.0 mi West 8.1 mph - N/A   Overcast
6:33 PM 10.4 °F -3.3 °F 8.6 °F 92% 29.93 in 10.0 mi WSW 10.4 mph - N/A   Overcast
6:53 PM 10.4 °F -2.4 °F 8.6 °F 92% 29.94 in 10.0 mi West 9.2 mph - N/A   Overcast
7:12 PM 10.4 °F -3.3 °F 8.6 °F 92% 29.94 in 10.0 mi West 10.4 mph - N/A   Mostly Cloudy
7:33 PM 10.4 °F -2.4 °F 6.8 °F 85% 29.94 in 10.0 mi West 9.2 mph - N/A   Mostly Cloudy
7:53 PM 10.4 °F -1.5 °F 6.8 °F 85% 29.94 in 10.0 mi West 8.1 mph - N/A   Overcast
8:13 PM 10.4 °F -1.5 °F 6.8 °F 85% 29.94 in 10.0 mi West 8.1 mph - N/A   Overcast
8:33 PM 10.4 °F -1.5 °F 6.8 °F 85% 29.95 in 10.0 mi West 8.1 mph - N/A   Overcast
8:53 PM 10.4 °F -1.5 °F 6.8 °F 85% 29.95 in 10.0 mi West 8.1 mph - N/A   Overcast
9:13 PM 10.4 °F -0.4 °F 6.8 °F 85% 29.95 in 10.0 mi WSW 6.9 mph - N/A   Overcast
9:33 PM 10.4 °F -2.4 °F 6.8 °F 85% 29.95 in 10.0 mi WSW 9.2 mph - N/A   Overcast
9:52 PM 10.4 °F -1.5 °F 6.8 °F 85% 29.95 in 10.0 mi WSW 8.1 mph - N/A   Mostly Cloudy
10:13 PM 10.4 °F -2.4 °F 6.8 °F 85% 29.95 in 4.0 mi West 9.2 mph - N/A Snow Light Snow
10:33 PM 10.4 °F -1.5 °F 6.8 °F 85% 29.95 in 10.0 mi West 8.1 mph - N/A   Overcast
10:53 PM 8.6 °F -2.6 °F 6.8 °F 92% 29.95 in 10.0 mi West 6.9 mph - N/A   Mostly Cloudy
11:13 PM 8.6 °F -4.7 °F 6.8 °F 92% 29.96 in 10.0 mi West 9.2 mph - N/A   Mostly Cloudy
11:33 PM 8.6 °F -3.7 °F 5.0 °F 85% 29.95 in 10.0 mi WSW 8.1 mph - N/A   Scattered Clouds
11:53 PM 6.8 °F -4.8 °F 5.0 °F 92% 29.95 in 10.0 mi WSW 6.9 mph - N/A Snow Light Snow